Weather History for KBMQ - August, 2013

Change the Weather History Date:

Sunday, August 18, 2013

  Actual Average Record
Temperature  
Mean Temperature 80 °F -  
Max Temperature 93 °F 91 °F 102 °F (2011)
Min Temperature 70 °F 71 °F 68 °F (2004)
Cooling Degree Days 16    
Growing Degree Days 30 (Base 50)    
Moisture  
Dew Point 56 °F    
Average Humidity 45    
Maximum Humidity 63    
Minimum Humidity 27    
Precipitation  
Precipitation 0.00 in - - ()
Sea Level Pressure  
Sea Level Pressure 30.02 in    
Wind  
Wind Speed 5 mph (ENE)    
Max Wind Speed 10 mph    
Max Gust Speed -    
Visibility 10 miles    
Events      
Averages and records for this station are not official NWS values.
T = Trace of Precipitation, MM = Missing Value Source: NWS Daily Summary

Daily Weather History Graph

Daily Weather History Graph

Search for Another Location

Airport or City:

Trip Planner

Search our weather history database for the weather conditions in past years. The results will help you decide how hot, cold, wet, or windy it might be!

Date:

Astronomy

Aug. 18, 2013 Rise Set
Actual Time 7:01 AM CDT 8:11 PM CDT
Civil Twilight 6:36 AM CDT 8:36 PM CDT
Nautical Twilight 6:06 AM CDT 9:06 PM CDT
Astronomical Twilight 5:35 AM CDT 9:37 PM CDT
Moon 6:15 PM CDT (8/18) 4:17 AM CDT (8/18)
Length of Visible Light 14h 00m
Length of Day
13h 10m
Waxing Gibbous, 92% of the Moon is Illuminated
Aug 18
Waxing Gibbous
Aug 20
Full
Aug 28
Last Quarter
Sep 5
New
Sep 12
First Quarter

Hourly Weather History & Observations

Time (CDT) Temp. Heat Index Dew Point Humidity Pressure Visibility Wind Dir Wind Speed Gust Speed Precip Events Conditions
12:53 AM 75.0 °F - 57.0 °F 53% 30.02 in 10.0 mi NNE 3.5 mph - N/A   Clear
1:53 AM 73.0 °F - 57.0 °F 57% 30.01 in 10.0 mi North 4.6 mph - N/A   Clear
2:53 AM 72.0 °F - 57.0 °F 59% 30.01 in 10.0 mi NNE 4.6 mph - N/A   Clear
3:53 AM 71.1 °F - 57.0 °F 61% 30.00 in 10.0 mi NNE 4.6 mph - N/A   Clear
4:53 AM 71.1 °F - 57.0 °F 61% 29.99 in 10.0 mi NE 3.5 mph - N/A   Clear
5:53 AM 71.1 °F - 57.0 °F 61% 30.00 in 10.0 mi Calm Calm - N/A   Clear
6:53 AM 70.0 °F - 57.0 °F 63% 30.01 in 10.0 mi NNE 3.5 mph - N/A   Clear
7:53 AM 71.1 °F - 57.0 °F 61% 30.02 in 10.0 mi ENE 5.8 mph - N/A   Clear
8:53 AM 77.0 °F - 57.9 °F 52% 30.05 in 10.0 mi ENE 3.5 mph - N/A   Clear
9:53 AM 81.0 °F 81.1 °F 57.9 °F 45% 30.06 in 10.0 mi ESE 6.9 mph - N/A   Clear
10:53 AM 82.9 °F 82.1 °F 55.9 °F 39% 30.07 in 10.0 mi East 3.5 mph - N/A   Clear
11:53 AM 84.9 °F 83.7 °F 55.9 °F 37% 30.06 in 10.0 mi SW 4.6 mph - N/A   Clear
12:53 PM 88.0 °F 86.1 °F 55.0 °F 32% 30.05 in 10.0 mi ESE 6.9 mph - N/A   Clear
1:53 PM 89.1 °F 86.9 °F 54.0 °F 30% 30.04 in 10.0 mi Variable 5.8 mph - N/A   Clear
2:53 PM 91.0 °F 88.7 °F 54.0 °F 28% 30.02 in 10.0 mi NNE 5.8 mph - N/A   Clear
3:53 PM 91.9 °F 89.5 °F 53.1 °F 27% 30.01 in 10.0 mi ESE 10.4 mph - N/A   Mostly Cloudy
4:53 PM 91.0 °F 88.9 °F 55.0 °F 29% 29.99 in 10.0 mi NE 6.9 mph - N/A   Clear
5:53 PM 91.0 °F 88.9 °F 55.0 °F 29% 29.99 in 10.0 mi East 9.2 mph - N/A   Clear
6:53 PM 89.1 °F 87.3 °F 55.9 °F 32% 29.99 in 10.0 mi East 9.2 mph - N/A   Clear
7:53 PM 86.0 °F 84.9 °F 57.0 °F 37% 29.98 in 10.0 mi East 4.6 mph - N/A   Clear
8:53 PM 82.9 °F 82.6 °F 57.9 °F 42% 29.99 in 10.0 mi ENE 3.5 mph - N/A   Clear
9:53 PM 80.1 °F 80.6 °F 57.9 °F 47% 30.00 in 10.0 mi ENE 3.5 mph - N/A   Clear
10:53 PM 79.0 °F - 57.0 °F 47% 30.01 in 10.0 mi NE 4.6 mph - N/A   Clear
11:53 PM 78.1 °F - 57.0 °F 48% 30.01 in 10.0 mi NE 5.8 mph - N/A   Clear